GW6141 Weather Reports


time (UTC)temp
C
wind
direction
speed
KPH
gust
KPH
rain 1hr
cm
rain 24hr
cm
rain mn
cm
humidity
%
barometer
mb
20260510113009 8 267 0.0 0.0 0.00 0.00 0.00 65 1013.6
20260510111508 8 267 0.0 0.0 0.00 0.00 0.00 66 1013.3
20260510110016 8 267 0.0 0.0 0.00 0.00 0.00 68 1013.0
20260510104529 7 267 0.0 0.0 0.00 0.00 0.00 68 1012.9
20260510103011 7 267 0.0 0.0 0.00 0.00 0.00 69 1012.7
20260510101511 8 267 0.0 0.0 0.00 0.00 0.00 70 1012.5
20260510100015 8 267 0.0 0.0 0.00 0.00 0.00 70 1012.4
20260510094521 8 267 0.0 0.0 0.00 0.00 0.00 71 1012.2
20260510093006 8 267 0.0 0.0 0.00 0.00 0.00 71 1012.2
20260510091508 8 267 0.0 0.0 0.00 0.00 0.00 71 1012.1
20260510090014 8 267 0.0 0.0 0.00 0.00 0.00 71 1012.0
20260510084521 9 267 0.0 0.0 0.00 0.00 0.00 70 1012.1
20260510083016 9 267 0.0 0.0 0.00 0.00 0.00 71 1011.9
20260510081517 9 267 0.0 0.0 0.00 0.00 0.00 72 1011.8
20260510080007 10 267 0.0 0.0 0.00 0.00 0.00 72 1011.4
20260510074516 10 267 0.0 0.0 0.00 0.00 0.00 72 1011.3
20260510073022 10 267 0.0 0.0 0.00 0.00 0.00 72 1011.3
20260510071520 10 267 0.0 0.0 0.00 0.00 0.00 73 1011.2
20260510070010 10 267 0.0 0.0 0.00 0.00 0.00 72 1011.3
20260510064519 10 267 0.0 0.0 0.00 0.00 0.00 74 1011.2
20260510063022 10 267 0.0 0.0 0.00 0.00 0.00 76 1011.3
20260510061527 11 267 0.0 0.0 0.00 0.00 0.00 76 1011.2
20260510060024 11 267 0.0 0.0 0.00 0.00 0.00 78 1011.3
20260510054510 11 267 0.0 0.0 0.00 0.00 0.00 78 1011.1
20260510053023 11 267 0.0 0.0 0.00 0.00 0.00 78 1011.3
20260510051530 12 267 0.0 0.0 0.00 0.00 0.00 78 1011.3
20260510050017 12 267 0.0 0.0 0.00 0.00 0.00 77 1011.2
20260510044512 12 267 0.0 0.0 0.00 0.00 0.00 77 1011.3
20260510043020 12 267 0.0 0.0 0.00 0.00 0.00 79 1011.2
20260510041519 12 267 0.0 0.0 0.00 0.00 0.00 79 1011.2
20260510040025 12 267 0.0 0.0 0.00 0.00 0.00 80 1011.0
20260510034522 13 267 0.0 0.0 0.00 0.00 0.00 81 1010.9
20260510033018 13 267 0.0 0.0 0.00 0.00 0.00 82 1010.8
20260510031516 13 267 0.0 0.0 0.00 0.00 0.00 82 1010.7
20260510030028 13 267 0.0 0.0 0.00 0.00 0.00 83 1010.7
20260510024526 14 267 0.0 0.0 0.00 0.00 0.00 82 1010.7
20260510023008 15 267 0.0 0.0 0.00 0.00 0.00 81 1010.5
20260510021516 15 267 0.0 0.0 0.00 0.00 0.00 80 1010.3
20260510020020 16 267 0.0 0.0 0.00 0.00 0.00 78 1009.9
20260510014521 16 267 0.0 0.0 0.00 0.00 0.00 77 1009.5
20260510013025 17 267 0.0 0.0 0.00 0.00 0.00 74 1009.3
20260510011509 17 267 0.0 0.0 0.00 0.00 0.00 71 1009.1
20260510010013 18 267 0.0 0.0 0.00 0.00 0.00 70 1008.8
20260510004522 18 267 0.0 0.0 0.00 0.00 0.00 68 1008.6
20260510003028 19 267 0.0 0.0 0.00 0.00 0.00 66 1008.2
20260510001509 20 267 0.0 0.0 0.00 0.00 0.00 64 1008.2
20260510000019 21 267 0.0 0.0 0.00 0.00 0.00 62 1008.1
20260509234514 21 267 0.0 0.0 0.00 0.00 0.00 59 1007.9
20260509233009 22 267 0.0 3.2 0.00 0.00 0.00 57 1007.8
20260509231528 22 267 0.0 0.0 0.00 0.00 0.00 55 1007.6
20260509230010 23 267 0.0 6.4 0.00 0.00 0.00 52 1007.7
20260509224516 23 250 0.0 6.4 0.00 0.00 0.00 53 1007.6
20260509223022 23 246 1.6 6.4 0.00 0.00 0.00 51 1007.7
20260509221515 23 248 0.0 3.2 0.00 0.00 0.00 51 1007.6
20260509220011 23 250 0.0 4.8 0.00 0.00 0.00 51 1007.6
20260509214515 23 281 3.2 11.3 0.00 0.00 0.00 49 1007.5
20260509213018 23 147 0.0 3.2 0.00 0.00 0.00 53 1007.4
20260509211524 23 280 0.0 3.2 0.00 0.00 0.00 55 1007.4
20260509210027 23 239 0.0 4.8 0.00 0.00 0.00 51 1007.3
20260509204519 23 281 3.2 14.5 0.00 0.00 0.00 50 1007.4
20260509203017 23 234 1.6 11.3 0.00 0.00 0.00 48 1007.3
20260509201526 25 308 1.6 12.9 0.00 0.00 0.00 49 1007.4
20260509200030 25 263 1.6 17.7 0.00 0.00 0.00 47 1007.4
20260509194529 24 142 1.6 11.3 0.00 0.00 0.00 51 1007.4
20260509193014 23 258 1.6 11.3 0.00 0.00 0.00 50 1007.7
20260509191519 23 141 0.0 4.8 0.00 0.00 0.00 51 1008.1
20260509190020 22 280 0.0 6.4 0.00 0.00 0.00 58 1008.2
20260509184514 21 310 0.0 6.4 0.00 0.00 0.00 56 1008.5
20260509183012 22 257 1.6 9.7 0.00 0.00 0.00 56 1008.6
20260509181510 22 243 1.6 6.4 0.00 0.00 0.00 55 1008.8
20260509180023 23 202 1.6 12.9 0.00 0.00 0.00 54 1008.9
20260509174525 23 273 3.2 14.5 0.00 0.00 0.00 53 1009.0
20260509173024 23 253 1.6 16.1 0.00 0.00 0.00 54 1009.2
20260509171523 23 312 4.8 22.5 0.00 0.00 0.00 56 1009.3
20260509170016 22 63 1.6 17.7 0.00 0.00 0.00 59 1009.5
20260509164523 21 295 0.0 20.9 0.00 0.00 0.00 64 1009.7
20260509163027 21 295 1.6 11.3 0.00 0.00 0.00 60 1009.6
20260509161512 21 227 4.8 12.9 0.00 0.00 0.00 59 1009.7
20260509160021 20 257 4.8 16.1 0.00 0.00 0.00 61 1010.0
20260509154522 20 242 3.2 19.3 0.00 0.00 0.00 61 1010.2
20260509153033 20 317 0.0 6.4 0.00 0.00 0.00 62 1010.1
20260509151515 19 229 0.0 11.3 0.00 0.00 0.00 66 1010.1
20260509150012 18 252 4.8 19.3 0.00 0.00 0.00 66 1010.6
20260509144518 17 260 0.0 12.9 0.00 0.00 0.00 66 1010.9
20260509143024 17 199 0.0 4.8 0.00 0.00 0.00 67 1010.8
20260509141524 17 171 1.6 11.3 0.00 0.00 0.00 67 1010.4
20260509140019 16 298 4.8 16.1 0.00 0.00 0.00 70 1010.6
20260509134515 15 232 0.0 14.5 0.00 0.00 0.00 73 1011.1
20260509133016 13 228 0.0 3.2 0.00 0.00 0.00 78 1011.2
20260509131527 12 251 0.0 0.0 0.00 0.00 0.00 82 1011.3
20260509130051 11 268 0.0 0.0 0.00 0.00 0.00 83 1011.4
20260509124528 10 268 0.0 0.0 0.00 0.00 0.00 82 1011.6
20260509123026 9 0.0 0.0 0.00 0.00 0.00 81 1011.7
20260509121524 8 0.0 0.0 0.00 0.00 0.00 76 1011.7
20260509120036 8 0.0 0.0 0.00 0.00 0.00 75 1011.8
20260509114531 8 0.0 0.0 0.00 0.00 0.00 76 1011.8